Waukesha, WI

9:41 AM CDT on July 25, 2016 (GMT -0500)
Waukesha County

Weather History for KUES - February, 2013

Change the Weather History Date:

Monday, February 25, 2013

  Actual Average Record
Temperature  
Mean Temperature 24 °F -  
Max Temperature 37 °F 34 °F 55 °F (1976)
Min Temperature 12 °F 19 °F -12 °F (1967)
Degree Days  
Heating Degree Days 40    
Moisture  
Dew Point 20 °F    
Average Humidity 86    
Maximum Humidity 100    
Minimum Humidity 56    
Precipitation  
Precipitation 0.00 in - - ()
Sea Level Pressure  
Sea Level Pressure 30.10 in    
Wind  
Wind Speed 1 mph (East)    
Max Wind Speed 8 mph    
Max Gust Speed -    
Visibility 6 miles    
Events      
Averages and records for this station are not official NWS values.
T = Trace of Precipitation, MM = Missing Value Source: NWS Daily Summary

Daily Weather History Graph

Daily Weather History Graph

Search for Another Location

Airport or City:

Trip Planner

Search our weather history database for the weather conditions in past years. The results will help you decide how hot, cold, wet, or windy it might be!

Date:

Astronomy

Feb. 25, 2013 Rise Set
Actual Time 6:35 AM CST 5:37 PM CST
Civil Twilight 6:06 AM CST 6:06 PM CST
Nautical Twilight 5:33 AM CST 6:39 PM CST
Astronomical Twilight 5:00 AM CST 7:12 PM CST
Moon 5:52 PM CST 6:04 AM CST
Length of Visible Light 11h 59m
Length of Day
11h 02m
Full, 100% of the Moon is Illuminated
Feb 25
Full
Feb 25
Full
Mar 4
Last Quarter
Mar 11
New
Mar 19
First Quarter

Hourly Weather History & Observations

Time (CST) Temp. Windchill Dew Point Humidity Pressure Visibility Wind Dir Wind Speed Gust Speed Precip Events Conditions
12:15 AM 15.8 °F - 14.0 °F 93% 30.14 in 2.0 mi Calm Calm - N/A   Clear
12:35 AM 15.8 °F - 14.0 °F 93% 30.14 in 3.0 mi Calm Calm - N/A   Clear
12:55 AM 17.6 °F - 15.8 °F 93% 30.14 in 2.5 mi Calm Calm - N/A   Clear
1:15 AM 17.6 °F - 15.8 °F 93% 30.14 in 2.5 mi Calm Calm - N/A   Clear
1:35 AM 17.6 °F - 15.8 °F 93% 30.14 in 5.0 mi Calm Calm - N/A   Clear
1:55 AM 17.6 °F - 15.8 °F 93% 30.13 in 3.0 mi Calm Calm - N/A   Clear
2:15 AM 15.8 °F - 15.8 °F 100% 30.13 in 3.0 mi Calm Calm - N/A   Clear
2:35 AM 17.6 °F - 15.8 °F 93% 30.13 in 4.0 mi Calm Calm - N/A   Clear
2:55 AM 14.0 °F - 14.0 °F 100% 30.13 in 4.0 mi Calm Calm - N/A   Clear
3:15 AM 15.8 °F - 14.0 °F 93% 30.13 in 5.0 mi Calm Calm - N/A   Clear
3:35 AM 14.0 °F - 14.0 °F 100% 30.13 in 4.0 mi Calm Calm - N/A   Mostly Cloudy
3:55 AM 14.0 °F - 12.2 °F 93% 30.13 in 3.0 mi Calm Calm - N/A   Scattered Clouds
4:15 AM 14.0 °F - 12.2 °F 93% 30.13 in 2.5 mi Calm Calm - N/A   Mostly Cloudy
4:35 AM 14.0 °F - 14.0 °F 100% 30.13 in 1.8 mi Calm Calm - N/A   Scattered Clouds
5:45 AM 12.2 °F - 12.2 °F 100% 30.15 in 7.0 mi Calm Calm - N/A   Mostly Cloudy
6:45 AM 14.0 °F - 12.2 °F 93% 30.15 in 5.0 mi Calm Calm - N/A   Scattered Clouds
7:45 AM 15.8 °F - 14.0 °F 93% 30.15 in 7.0 mi Calm Calm - N/A   Clear
8:45 AM 21.2 °F - 21.2 °F 100% 30.16 in 7.0 mi Calm Calm - N/A   Scattered Clouds
9:45 AM 28.4 °F - 21.2 °F 74% 30.15 in 10.0 mi Calm Calm - N/A   Partly Cloudy
10:45 AM 33.8 °F - 21.2 °F 60% 30.13 in 10.0 mi Calm Calm - N/A   Clear
11:45 AM 35.6 °F 29.9 °F 21.2 °F 56% 30.13 in 10.0 mi SSE 6.9 mph - N/A   Scattered Clouds
12:45 PM 35.6 °F 32.8 °F 21.2 °F 56% 30.12 in 10.0 mi South 3.5 mph - N/A   Scattered Clouds
1:45 PM 37.4 °F 34.9 °F 24.8 °F 60% 30.10 in 10.0 mi SE 3.5 mph - N/A   Scattered Clouds
2:45 PM 37.4 °F 34.9 °F 24.8 °F 60% 30.08 in 10.0 mi SSE 3.5 mph - N/A   Partly Cloudy
3:45 PM 37.4 °F 33.8 °F 24.8 °F 60% 30.08 in 10.0 mi East 4.6 mph - N/A   Partly Cloudy
4:45 PM 35.6 °F 30.7 °F 24.8 °F 65% 30.08 in 10.0 mi SE 5.8 mph - N/A   Scattered Clouds
5:45 PM 33.8 °F 29.6 °F 21.2 °F 60% 30.07 in 10.0 mi SE 4.6 mph - N/A   Scattered Clouds
6:45 PM 30.2 °F 22.6 °F 24.8 °F 80% 30.08 in 10.0 mi East 8.1 mph - N/A   Scattered Clouds
7:45 PM 28.4 °F 23.3 °F 24.8 °F 86% 30.07 in 10.0 mi East 4.6 mph - N/A   Scattered Clouds
8:15 PM 30.2 °F 24.3 °F 26.6 °F 86% 30.05 in 10.0 mi NE 5.8 mph - N/A   Clear
8:35 PM 30.2 °F 25.4 °F 26.6 °F 86% 30.05 in 7.0 mi ENE 4.6 mph - N/A   Clear
8:45 PM 28.4 °F 23.3 °F 24.8 °F 86% 30.04 in 10.0 mi ENE 4.6 mph - N/A   Scattered Clouds
8:55 PM 28.4 °F 23.3 °F 26.6 °F 93% 30.04 in 7.0 mi East 4.6 mph - N/A   Clear
9:15 PM 28.4 °F 23.3 °F 24.8 °F 86% 30.04 in 7.0 mi East 4.6 mph - N/A   Clear
9:35 PM 26.6 °F - 24.8 °F 93% 30.05 in 5.0 mi Calm Calm - N/A   Clear
9:55 PM 26.6 °F 22.6 °F 23.0 °F 86% 30.06 in 5.0 mi East 3.5 mph - N/A   Clear
10:15 PM 26.6 °F 22.6 °F 23.0 °F 86% 30.06 in 5.0 mi NE 3.5 mph - N/A   Clear
10:35 PM 26.6 °F - 26.6 °F 100% 30.07 in 5.0 mi Calm Calm - N/A   Clear
10:55 PM 26.6 °F - 26.6 °F 100% 30.07 in 5.0 mi Calm Calm - N/A   Clear
11:15 PM 26.6 °F - 26.6 °F 100% 30.06 in 4.0 mi Calm Calm - N/A   Clear
11:35 PM 26.6 °F - 26.6 °F 100% 30.05 in 4.0 mi Calm Calm - N/A   Clear
11:55 PM 28.4 °F 22.2 °F 26.6 °F 93% 30.03 in 5.0 mi NE 5.8 mph - N/A   Clear